Date,TemperatureHighF,TemperatureAvgF,TemperatureLowF,DewpointHighF,DewpointAvgF,DewpointLowF,HumidityHigh,HumidityAvg,HumidityLow,PressureMaxIn,PressureMinIn,WindSpeedMaxMPH,WindSpeedAvgMPH,GustSpeedMaxMPH,PrecipitationSumIn
2013-1-1,44.2,40.4,35.8,40.0,33.9,26.6,85,78,69,30.09,29.85,16,3,16,0.00
2013-1-2,40.5,33.7,25.0,29.6,25.2,18.8,78,71,63,30.15,30.06,12,1,12,0.00
2013-1-3,52.9,36.6,22.1,31.0,25.2,16.4,82,65,40,30.26,30.13,14,1,14,0.00
2013-1-4,51.4,43.0,36.3,32.6,29.3,25.3,72,59,45,30.33,30.17,6,0,6,0.00
2013-1-5,54.0,41.7,31.5,39.4,32.7,25.4,82,71,54,30.17,30.02,9,1,9,0.00
2013-1-6,62.8,40.2,28.0,31.4,26.2,20.0,82,61,27,30.20,30.09,12,1,12,0.01
2013-1-7,57.4,40.4,23.0,36.6,28.6,17.4,79,64,43,30.14,29.91,10,1,10,0.00
2013-1-8,47.3,46.2,44.2,43.3,38.9,33.6,86,76,62,29.92,29.77,10,1,10,1.00
2013-1-9,55.4,52.3,47.3,50.1,47.6,43.3,87,84,81,29.94,29.77,25,5,25,1.46
2013-1-10,62.8,54.8,45.7,53.9,46.8,40.0,89,75,55,29.82,29.72,19,4,19,0.05
2013-1-11,73.2,58.0,43.9,56.8,47.2,38.9,84,69,47,29.77,29.59,21,3,21,0.00
2013-1-12,70.7,53.9,35.6,63.4,48.3,28.7,89,81,74,29.75,29.47,24,4,24,1.65
2013-1-13,46.8,35.8,29.3,28.8,23.2,17.2,75,60,47,30.09,29.74,21,5,21,0.00
2013-1-14,45.9,34.3,27.0,27.9,20.9,-26.7,67,58,45,30.15,30.01,18,2,18,0.00
2013-1-15,36.9,33.6,27.5,27.3,23.3,18.9,82,66,55,30.05,29.95,18,2,18,0.08
2013-1-16,52.3,35.5,26.2,24.1,19.0,12.0,78,54,27,30.10,29.97,10,1,10,0.01
2013-1-17,64.4,43.9,26.4,36.2,28.5,19.5,80,57,31,30.25,30.04,14,1,14,0.00
2013-1-18,64.8,49.6,44.6,38.2,33.2,30.3,66,54,34,30.30,30.08,14,1,14,0.00
2013-1-19,68.2,49.7,36.7,46.9,39.1,31.1,85,68,47,30.08,29.95,17,2,17,0.00
2013-1-20,71.2,48.7,32.7,48.4,39.0,28.7,87,71,43,30.03,29.88,8,1,8,0.00
2013-1-21,60.8,46.2,37.6,39.4,32.6,25.4,86,60,43,30.11,29.93,14,2,14,0.00
2013-1-22,65.5,47.4,32.7,46.9,35.7,23.9,82,64,49,30.12,29.99,9,1,9,0.00
2013-1-23,75.9,57.5,40.6,55.0,47.1,36.6,87,70,49,30.08,29.93,15,2,15,0.00
2013-1-24,80.1,60.4,48.9,58.9,52.1,44.7,89,76,48,30.00,29.84,12,1,12,0.00
2013-1-25,57.7,49.8,44.2,52.2,42.2,36.6,87,75,66,30.01,29.83,13,1,13,0.00
2013-1-26,51.3,46.8,43.0,45.0,41.6,37.0,88,82,70,30.03,29.91,8,1,9,0.00
2013-1-27,76.3,61.4,46.9,60.0,53.5,43.6,92,77,54,29.91,29.73,21,3,21,0.01
2013-1-28,77.5,71.8,65.8,62.9,60.2,58.1,77,67,56,29.82,29.66,21,4,21,0.00
2013-1-29,78.3,66.8,52.9,62.8,56.0,-1.6,78,69,42,29.66,29.26,100,6,100,0.22
2013-1-30,55.8,46.3,32.0,37.3,27.0,18.3,73,49,26,29.95,29.50,27,6,27,0.00
2013-1-31,71.6,48.9,28.6,34.6,25.3,18.5,77,46,14,30.13,29.89,23,3,23,0.00
2013-2-1,62.1,43.8,29.1,38.7,29.1,17.7,78,57,40,30.20,29.97,13,1,14,0.00
2013-2-2,70.9,53.9,41.0,46.9,38.7,32.3,84,59,28,30.12,29.95,12,1,12,0.00
2013-2-3,71.6,53.2,31.5,41.7,34.3,22.2,86,53,19,30.12,29.80,8,0,8,0.00
2013-2-4,67.5,56.8,52.5,54.4,44.6,35.1,88,65,46,29.80,29.61,12,1,12,0.02
2013-2-5,67.1,57.7,51.1,58.6,53.8,48.0,95,87,75,29.82,29.69,9,0,9,0.01
2013-2-6,74.8,60.6,51.3,61.5,55.2,49.1,95,83,61,29.83,29.68,13,1,13,0.01
2013-2-7,84.6,63.7,55.8,61.1,53.3,45.5,89,71,32,29.89,29.60,27,4,27,0.00
2013-2-8,66.6,53.0,42.4,46.9,37.2,26.6,78,58,26,30.06,29.89,15,2,15,0.00
2013-2-9,59.4,49.9,46.2,55.5,45.0,40.1,93,83,69,29.95,29.56,16,3,16,0.01
2013-2-10,71.8,58.4,42.8,60.2,39.4,20.9,89,56,16,29.83,29.46,25,2,25,0.78
2013-2-11,54.7,50.4,44.8,42.2,36.9,31.3,78,60,46,29.96,29.81,17,2,17,0.00
2013-2-12,49.1,46.1,42.6,44.5,42.1,38.3,92,86,76,29.84,29.65,17,1,17,0.31
2013-2-13,57.0,45.1,38.8,41.3,36.8,34.2,86,73,54,29.96,29.82,17,1,17,0.00
2013-2-14,71.6,50.6,35.4,43.7,37.6,30.6,88,65,27,29.92,29.80,7,0,7,0.00
2013-2-15,54.9,45.8,31.5,41.2,29.6,16.5,82,55,26,30.18,29.89,17,2,17,0.00
2013-2-16,58.5,39.2,25.3,33.9,26.6,19.8,81,62,36,30.21,29.98,4,0,4,0.00
2013-2-17,71.8,54.7,37.2,47.1,35.2,28.9,77,51,23,29.98,29.73,24,4,24,0.00
2013-2-18,81.7,62.4,51.1,57.3,45.5,32.4,75,56,28,29.93,29.55,30,8,30,0.00
2013-2-19,63.3,51.3,36.1,35.4,29.3,22.4,75,45,24,30.13,29.92,14,2,14,0.00
2013-2-20,51.8,44.2,40.1,40.0,36.2,33.3,83,74,51,30.00,29.61,27,6,27,0.11
2013-2-21,70.0,52.8,42.3,50.3,39.5,28.9,87,64,27,29.74,29.42,19,3,19,0.06
2013-2-22,52.0,40.5,31.6,37.2,27.7,20.2,79,61,44,29.95,29.72,12,1,12,0.00
2013-2-23,55.4,40.7,28.4,32.5,27.8,21.3,81,62,37,29.89,29.73,8,0,8,0.00
2013-2-24,71.1,53.4,32.7,47.7,39.5,27.3,82,61,38,29.74,29.43,97,2,97,0.00
2013-2-25,65.1,52.1,39.9,51.2,39.5,30.4,79,64,32,29.45,29.25,29,6,29,0.02
2013-2-26,62.8,46.1,37.2,37.4,33.4,28.4,78,63,37,29.71,29.45,30,6,30,0.00
2013-2-27,59.0,46.0,34.7,35.1,27.5,15.9,82,53,22,30.03,29.69,26,4,26,0.00
2013-2-28,61.3,46.5,35.4,32.8,27.4,23.6,72,50,28,30.09,29.96,21,3,21,0.00
2013-3-1,57.6,42.9,28.9,34.7,28.9,22.8,80,59,39,30.10,29.99,14,1,14,0.00
2013-3-2,56.8,40.5,30.6,31.2,23.5,16.7,76,53,26,30.23,30.03,21,2,21,0.00
2013-3-3,71.8,53.1,32.7,45.1,32.6,24.3,76,49,26,30.03,29.61,23,4,23,0.00
2013-3-4,88.2,67.2,55.4,55.4,47.6,36.6,70,52,17,29.62,29.40,24,6,24,0.00
2013-3-5,66.6,50.9,37.8,49.4,27.0,15.9,66,42,22,30.17,29.56,25,6,25,0.00
2013-3-6,63.0,47.3,35.1,34.6,24.7,18.8,62,43,20,30.26,30.01,11,0,11,0.00
2013-3-7,70.9,55.2,36.1,40.6,33.4,25.1,69,46,23,30.05,29.90,16,2,16,0.00
2013-3-8,62.8,57.7,52.9,53.3,48.6,38.6,76,72,52,30.00,29.81,18,1,18,0.00
2013-3-9,69.3,63.4,59.2,61.9,56.2,52.1,88,78,72,29.81,29.46,18,3,18,0.11
2013-3-10,64.4,51.1,36.0,58.3,39.8,28.7,87,66,50,29.90,29.50,24,5,24,0.51
2013-3-11,60.6,43.4,28.0,35.2,26.3,15.4,87,57,21,29.93,29.80,19,1,19,0.00
2013-3-12,70.7,51.9,33.1,35.4,30.2,23.2,81,48,20,30.11,29.84,16,1,16,0.00
2013-3-13,71.8,54.8,36.9,40.5,36.2,30.8,84,53,26,30.25,30.11,12,0,12,0.00
2013-3-14,79.7,62.3,47.8,49.3,43.0,35.8,65,51,34,30.16,29.98,16,2,16,0.00
2013-3-15,82.6,67.3,53.6,55.9,48.9,45.3,80,54,29,29.98,29.70,22,4,22,0.00
2013-3-16,83.7,69.7,58.3,61.6,54.2,49.0,77,59,44,29.70,29.50,21,6,21,0.00
2013-3-17,77.5,68.3,58.1,59.8,55.0,46.9,75,63,46,29.59,29.47,18,3,18,0.00
2013-3-18,73.4,63.1,55.2,59.5,48.3,38.7,82,60,42,29.83,29.45,20,2,20,0.00
2013-3-19,70.0,58.2,46.4,44.3,39.5,35.7,73,51,37,29.93,29.78,17,2,17,0.00
2013-3-20,70.9,57.3,46.2,39.7,34.1,20.3,66,45,17,30.11,29.84,18,1,18,0.00
2013-3-21,70.7,60.1,50.5,55.0,43.9,33.8,68,55,42,29.85,29.40,18,4,18,0.00
2013-3-22,65.7,53.1,45.3,57.5,46.3,40.3,88,78,68,29.66,29.39,18,1,18,0.00
2013-3-23,57.0,49.5,45.7,48.1,43.9,41.3,90,81,72,29.68,29.47,14,0,14,0.11
2013-3-24,54.7,45.8,39.4,44.7,29.9,22.3,84,56,34,29.98,29.61,26,6,26,0.02
2013-3-25,56.8,42.9,27.3,27.7,19.5,13.1,74,42,21,30.20,29.98,20,2,20,0.00
2013-3-26,60.1,42.9,26.1,32.3,23.2,16.0,73,48,24,30.31,30.11,8,0,8,0.00
2013-3-27,73.6,55.6,39.0,44.9,34.8,26.0,65,47,28,30.13,29.90,20,3,20,0.00
2013-3-28,74.1,61.9,50.5,55.6,49.7,41.8,76,65,54,30.03,29.90,12,2,12,0.00
2013-3-29,78.6,67.2,60.3,58.7,54.5,51.7,74,64,51,30.00,29.83,17,2,17,0.00
2013-3-30,78.8,66.1,54.5,61.6,56.1,50.7,88,71,55,29.91,29.69,21,2,21,0.81
2013-3-31,78.6,66.0,54.5,58.6,54.2,46.7,83,67,47,29.79,29.60,18,1,18,0.52
2013-4-1,81.9,64.5,46.0,54.1,49.0,42.7,89,61,33,29.88,29.74,6,0,6,0.00
2013-4-2,74.1,65.5,51.8,59.8,53.7,40.5,73,66,60,29.84,29.70,26,2,26,0.00
2013-4-3,54.7,48.0,44.4,45.1,41.5,39.3,85,78,68,29.95,29.77,19,2,19,0.71
2013-4-4,52.9,45.9,41.7,41.3,38.4,36.6,84,75,64,30.00,29.91,13,0,13,0.04
2013-4-5,67.5,47.4,36.5,45.7,38.3,31.1,86,72,41,30.05,29.98,5,0,5,0.00
2013-4-6,76.5,64.5,53.6,57.3,50.4,45.2,73,61,46,29.85,29.65,17,4,17,0.00
2013-4-7,73.2,66.8,60.3,58.6,55.0,51.6,73,66,59,29.72,29.56,16,2,16,0.00
2013-4-8,76.1,70.9,64.9,60.4,57.5,53.7,68,63,58,29.58,29.48,17,5,17,0.00
2013-4-9,83.3,74.1,66.7,63.3,59.7,56.5,74,61,48,29.54,29.44,17,3,17,0.00
2013-4-10,72.5,48.2,39.6,61.6,40.9,33.9,84,76,65,29.78,29.51,15,2,15,0.34
2013-4-11,65.3,48.9,38.8,40.6,34.0,28.9,81,59,33,29.77,29.61,6,0,6,0.00
2013-4-12,79.5,61.7,38.7,49.2,44.0,34.5,85,56,31,29.81,29.66,8,0,8,0.00
2013-4-13,79.9,65.7,48.6,54.0,48.5,41.2,78,55,35,29.82,29.59,14,1,14,0.00
2013-4-14,82.6,75.3,63.5,62.2,58.8,47.5,66,57,50,29.59,29.37,17,3,17,0.00
2013-4-15,88.0,76.5,67.3,65.5,61.1,57.9,75,60,47,29.56,29.43,17,4,17,0.00
2013-4-16,88.9,78.0,71.8,66.2,61.4,58.1,66,57,46,29.71,29.57,16,2,16,0.00
2013-4-17,86.7,77.3,72.9,65.0,62.4,60.6,69,60,50,29.69,29.44,23,5,23,0.00
2013-4-18,75.6,55.9,44.2,64.0,44.0,32.6,79,65,49,29.96,29.37,33,4,33,1.32
2013-4-19,67.3,50.1,34.3,39.8,30.2,21.7,78,51,21,30.08,29.94,18,1,18,0.00
2013-4-20,73.0,59.0,43.0,44.2,37.7,32.8,71,47,26,30.01,29.83,16,2,16,0.00
2013-4-21,73.0,60.5,49.3,52.7,45.8,39.5,74,59,44,30.03,29.88,10,0,10,0.00
2013-4-22,79.2,66.7,53.8,58.5,51.7,43.0,73,59,48,29.92,29.66,18,2,18,0.00
2013-4-23,67.8,55.6,42.3,55.6,45.9,34.8,75,70,61,29.98,29.62,19,2,19,0.02
2013-4-24,65.7,50.4,39.2,40.7,35.7,31.6,79,59,34,30.11,29.97,14,1,14,0.11
2013-4-25,77.2,62.4,49.3,49.2,42.5,35.6,65,49,31,30.14,29.96,9,0,9,0.00
2013-4-26,79.2,67.0,58.6,61.3,52.7,45.2,67,60,53,29.98,29.77,14,1,14,0.00
2013-4-27,79.9,70.0,59.2,58.6,55.3,49.6,73,60,45,29.92,29.79,11,1,11,0.00
2013-4-28,61.0,59.5,58.6,50.0,49.3,48.8,71,69,66,29.85,29.83,0,0,0,0.00
2013-4-29,86.0,73.8,59.4,62.9,57.6,51.8,78,58,44,29.72,29.60,11,1,11,0.00
2013-4-30,85.3,71.1,58.3,63.4,56.5,50.7,76,60,46,29.65,29.55,13,1,13,0.00
2013-5-1,88.0,73.4,63.1,63.8,58.0,5.7,72,60,10,29.77,29.59,18,1,18,0.00
2013-5-2,68.2,53.1,43.3,55.5,42.8,34.0,74,68,63,30.13,29.75,22,3,22,0.05
2013-5-3,70.2,53.2,39.2,36.8,30.7,22.6,73,48,19,30.10,29.83,21,2,21,0.00
2013-5-4,76.6,58.0,38.3,43.6,33.1,18.2,81,47,13,29.83,29.69,27,2,27,0.00
2013-5-5,72.3,57.2,45.3,47.9,42.0,35.8,73,58,42,29.95,29.83,14,0,14,0.00
2013-5-6,84.2,63.9,46.2,55.1,48.1,39.9,80,59,34,29.92,29.79,8,0,8,0.00
2013-5-7,87.4,71.0,52.5,58.2,52.3,45.5,77,54,33,29.88,29.74,6,0,6,0.00
2013-5-8,87.3,73.9,62.1,62.1,55.2,49.8,64,53,40,29.81,29.67,13,2,13,0.00
2013-5-9,73.0,68.7,66.7,60.4,57.4,54.1,76,67,55,29.78,29.66,10,0,10,0.28
2013-5-10,67.8,67.8,67.8,60.0,60.0,60.0,76,76,76,29.73,29.73,0,0,0,0.28
2013-5-11,67.8,67.8,67.8,60.0,60.0,60.0,76,76,76,29.73,29.73,0,0,0,0.28
2013-5-12,67.8,67.8,67.8,60.0,60.0,60.0,76,76,76,29.73,29.73,0,0,0,0.28
2013-5-13,67.8,67.8,67.8,60.0,60.0,60.0,76,76,76,29.73,29.73,0,0,0,0.28
2013-5-14,67.8,67.8,67.8,60.0,60.0,60.0,76,76,76,29.73,29.73,0,0,0,0.28
2013-5-15,67.8,67.8,67.8,60.0,60.0,60.0,76,76,76,29.73,29.73,0,0,0,0.28
2013-5-16,67.8,67.8,67.8,60.0,60.0,60.0,76,76,76,29.73,29.73,0,0,0,0.28
2013-5-17,67.8,67.8,67.8,60.0,60.0,60.0,76,76,76,29.73,29.73,0,0,0,0.28
2013-5-18,67.8,67.8,67.8,60.0,60.0,60.0,76,76,76,29.73,29.73,0,0,0,0.28
2013-5-19,67.8,67.8,67.8,60.0,60.0,60.0,76,76,76,29.73,29.73,0,0,0,0.28
2013-5-20,67.8,67.8,67.8,60.0,60.0,60.0,76,76,76,29.73,29.73,0,0,0,0.28
2013-5-21,67.8,67.8,67.8,60.0,60.0,60.0,76,76,76,29.73,29.73,0,0,0,0.28
2013-5-22,87.4,69.3,52.7,58.1,51.6,45.5,77,55,34,29.88,29.75,4,0,4,0.00
2013-5-23,86.7,73.5,62.1,61.5,54.3,49.7,64,52,36,29.81,29.71,11,1,11,0.00
2013-5-24,87.1,71.7,66.7,60.4,57.0,54.2,74,61,40,29.78,29.67,11,1,11,0.28
2013-5-25,87.1,74.1,66.9,65.8,61.0,55.6,76,64,50,29.96,29.66,17,1,17,0.54
2013-5-26,89.6,78.8,71.8,66.6,63.0,59.8,72,59,47,29.89,29.73,14,1,14,0.07
2013-5-27,88.3,79.5,72.3,65.2,62.0,59.0,65,55,47,29.79,29.59,16,2,16,0.00
2013-5-28,88.0,79.6,71.6,65.0,61.4,58.4,64,54,45,29.70,29.57,20,4,20,0.00
2013-5-29,85.8,77.1,69.8,64.8,61.7,57.3,69,59,51,29.64,29.53,25,3,25,0.21
2013-5-30,76.5,75.4,74.8,62.1,61.5,60.7,64,62,60,29.59,29.56,18,6,18,0.00
2013-5-31,91.4,83.2,77.4,68.3,64.4,62.4,61,54,45,29.65,29.48,16,3,16,0.00
2013-6-1,89.8,80.8,76.5,67.1,63.0,59.6,62,55,46,29.75,29.53,18,2,18,0.00
2013-6-2,87.1,77.1,67.3,60.4,55.1,50.7,62,48,30,29.87,29.74,5,0,5,0.00
2013-6-3,91.8,76.5,61.9,63.3,57.0,50.4,67,52,35,29.81,29.64,2,0,2,0.00
2013-6-4,92.3,80.8,70.5,68.5,61.4,56.4,61,52,42,29.82,29.60,9,1,9,0.00
2013-6-5,94.3,82.4,72.3,69.0,63.1,59.5,65,53,43,29.75,29.55,5,0,5,0.00
2013-6-6,81.9,73.6,67.6,63.4,59.7,56.4,74,62,51,29.75,29.60,11,0,11,0.92
2013-6-7,89.4,73.7,60.6,60.3,55.9,52.6,77,56,33,29.81,29.69,11,0,11,0.01
2013-6-8,91.8,76.3,59.4,64.0,58.1,51.3,75,55,40,29.75,29.60,10,0,10,0.00
2013-6-9,92.1,79.2,68.7,67.3,61.7,57.8,75,56,43,29.74,29.65,14,0,14,0.66
2013-6-10,101.5,84.0,69.4,70.2,63.9,59.6,74,53,33,29.76,29.69,12,0,12,0.00
2013-6-11,95.7,84.4,74.5,69.6,64.9,59.6,66,52,43,29.83,29.72,11,1,11,0.00
2013-6-12,96.3,84.7,75.4,70.2,65.3,61.9,67,53,43,29.87,29.73,11,1,11,0.00
2013-6-13,101.7,86.4,73.8,71.2,65.5,61.1,66,51,35,29.86,29.69,2,0,2,0.00
2013-6-14,101.7,87.6,74.1,72.4,66.6,61.8,67,50,38,29.79,29.68,3,0,3,0.00
2013-6-15,95.2,83.6,71.4,70.9,65.5,58.6,72,55,45,29.81,29.68,15,0,15,0.01
2013-6-16,97.9,85.9,75.0,71.3,66.0,62.8,70,52,41,29.82,29.67,7,0,7,0.00
2013-6-17,94.8,81.9,69.4,70.2,64.4,57.9,73,56,45,29.85,29.66,15,0,15,0.02
2013-6-18,86.2,77.9,73.0,64.6,61.8,59.5,67,58,50,29.81,29.68,10,0,10,0.00
2013-6-19,96.8,81.7,70.9,70.6,65.1,60.6,74,59,44,29.80,29.71,8,0,8,0.00
2013-6-20,97.0,86.2,77.5,70.1,65.6,63.1,63,51,40,29.85,29.73,11,1,11,0.00
2013-6-21,98.1,87.9,76.3,70.7,65.6,61.7,62,48,38,29.88,29.76,11,1,11,0.00
2013-6-22,97.9,85.8,75.9,70.5,64.9,60.6,61,50,39,29.85,29.69,15,1,15,0.00
2013-6-23,84.4,79.9,76.6,67.6,62.8,61.6,63,56,51,29.81,29.73,15,1,15,0.18
2013-6-24,97.5,87.3,76.8,70.6,65.4,61.4,61,49,40,29.84,29.69,14,2,14,0.00
2013-6-25,98.1,87.6,77.4,70.2,65.1,61.8,60,48,36,29.80,29.63,21,3,21,0.00
2013-6-26,99.7,87.6,77.5,71.6,65.6,60.8,61,48,40,29.77,29.65,15,2,15,0.00
2013-6-27,102.6,87.8,77.4,72.8,66.0,61.1,59,49,37,29.82,29.66,10,0,10,0.00
2013-6-28,106.0,88.4,76.3,71.9,64.9,60.3,60,47,33,29.75,29.61,11,0,11,0.00
2013-6-29,101.1,86.7,72.7,68.6,61.9,58.4,63,45,28,29.70,29.60,18,1,18,0.00
2013-6-30,94.3,82.4,71.8,62.4,58.4,53.5,62,45,30,29.74,29.61,16,1,16,0.00
2013-7-1,91.2,78.8,68.2,62.9,57.3,53.4,61,48,33,29.83,29.74,16,1,16,0.00
2013-7-2,93.2,78.3,66.9,60.4,54.0,48.1,59,45,24,29.89,29.80,17,0,17,0.00
2013-7-3,96.6,78.3,61.0,62.8,54.8,46.5,73,48,23,29.87,29.74,7,0,7,0.00
2013-7-4,99.9,83.3,72.9,65.9,60.8,57.3,60,48,29,29.82,29.70,16,0,16,0.00
2013-7-5,99.7,84.3,69.6,68.7,62.2,57.4,67,49,32,29.81,29.66,8,0,8,0.00
2013-7-6,100.9,86.1,74.8,70.0,63.2,59.1,61,47,33,29.76,29.66,10,0,10,0.00
2013-7-7,102.2,89.5,76.1,70.7,65.7,61.3,64,47,33,29.81,29.72,8,0,8,0.00
2013-7-8,98.1,98.1,98.1,66.6,66.6,66.6,36,36,36,29.72,29.72,1,1,1,0.00
2013-7-9,98.1,98.1,98.1,66.6,66.6,66.6,36,36,36,29.72,29.72,1,1,1,0.00
2013-7-10,98.1,98.1,98.1,66.6,66.6,66.6,36,36,36,29.72,29.72,1,1,1,0.00
2013-7-11,98.1,98.1,98.1,66.6,66.6,66.6,36,36,36,29.72,29.72,1,1,1,0.00
2013-7-12,98.1,98.1,98.1,66.6,66.6,66.6,36,36,36,29.72,29.72,1,1,1,0.00
2013-7-13,98.1,98.1,98.1,66.6,66.6,66.6,36,36,36,29.72,29.72,1,1,1,0.00
2013-7-14,98.1,98.1,98.1,66.6,66.6,66.6,36,36,36,29.72,29.72,1,1,1,0.00
2013-7-15,98.1,79.9,67.8,67.3,65.4,63.0,86,65,36,29.90,29.72,9,0,9,0.60
2013-7-16,94.8,78.5,72.1,71.5,67.2,63.9,85,69,46,30.03,29.88,13,0,13,0.33
2013-7-17,94.1,80.6,71.4,72.1,67.6,64.4,85,66,46,30.03,29.93,10,0,10,0.20
2013-7-18,100.8,84.1,70.9,71.5,67.6,64.8,82,60,39,29.99,29.80,8,0,8,0.00
2013-7-19,98.6,81.5,76.6,72.1,68.3,65.6,80,65,42,29.85,29.73,7,0,7,0.19
2013-7-20,99.7,82.6,73.0,72.7,67.7,65.2,78,62,37,29.79,29.65,17,0,17,0.00
2013-7-21,98.4,85.4,73.6,72.9,68.6,66.3,79,59,42,29.74,29.64,12,1,12,0.00
2013-7-24,97.7,84.9,75.9,71.4,66.6,63.5,67,55,39,29.86,29.66,14,1,14,0.00
2013-7-25,98.1,85.6,73.8,72.2,68.1,64.9,76,57,42,29.85,29.77,3,0,3,0.00
2013-7-26,98.4,84.5,77.0,73.5,68.9,66.8,83,61,43,29.82,29.65,11,1,11,0.09
2013-7-27,93.2,81.2,72.3,68.4,64.7,62.2,75,59,41,29.82,29.70,8,1,8,0.00
2013-7-28,95.0,83.0,69.6,69.8,66.2,62.2,79,58,43,29.80,29.67,4,0,4,0.00
2013-7-29,96.1,86.3,77.9,72.2,68.5,62.5,74,57,37,29.81,29.71,11,1,11,0.00
2013-7-30,100.0,88.5,78.8,72.1,67.2,61.1,68,50,41,29.89,29.74,11,1,11,0.00
2013-7-31,106.2,90.0,78.1,72.4,68.2,63.8,66,50,33,29.86,29.70,11,0,11,0.00
2013-8-1,106.7,90.9,78.4,74.3,70.1,66.8,74,52,33,29.80,29.68,10,0,10,0.00
2013-8-2,106.3,91.5,79.7,72.4,69.0,65.5,67,49,34,29.75,29.66,15,1,15,0.00
2013-8-3,104.2,90.6,80.4,72.3,68.6,65.7,64,50,34,29.81,29.72,7,0,7,0.00
2013-8-4,104.4,90.2,77.9,73.4,69.3,65.3,73,52,34,29.88,29.72,8,0,8,0.00
2013-8-5,105.8,91.8,81.7,71.4,68.0,63.5,65,47,33,29.81,29.64,11,1,11,0.00
2013-8-6,104.7,91.4,80.1,72.5,67.9,62.8,66,48,34,29.72,29.59,14,1,14,0.00
2013-8-7,107.2,92.3,80.2,73.1,68.9,64.5,68,48,32,29.70,29.56,15,1,15,0.00
2013-8-8,104.7,91.0,79.7,73.1,68.9,64.5,73,50,34,29.69,29.57,10,1,10,0.00
2013-8-9,109.2,90.7,78.8,72.5,66.4,58.3,66,47,23,29.75,29.63,8,0,8,0.00
2013-8-10,102.7,88.2,75.9,75.8,70.3,66.0,86,57,37,29.86,29.74,12,0,12,0.00
2013-8-11,105.8,89.1,77.0,76.0,69.7,60.2,75,55,26,29.88,29.74,14,0,14,0.00
2013-8-12,103.1,89.6,78.1,73.3,69.7,66.6,76,54,36,29.85,29.71,8,0,8,0.00
2013-8-13,104.5,87.5,77.2,77.2,69.9,66.2,85,57,36,29.81,29.68,20,0,20,0.20
2013-8-14,89.6,81.6,75.6,74.5,71.3,66.8,92,72,55,29.83,29.73,8,1,8,0.13
2013-8-15,91.4,80.5,71.1,67.7,63.9,58.9,74,58,42,29.88,29.76,5,0,5,0.00
2013-8-16,79.3,72.1,68.2,67.1,63.5,60.2,90,75,59,29.88,29.78,13,0,13,0.06
2013-8-18,95.7,79.6,64.8,68.0,63.0,58.6,88,60,34,29.91,29.79,4,0,4,0.00
2013-8-19,98.8,84.7,71.8,69.1,64.0,60.4,75,52,31,29.88,29.73,4,0,4,0.00
2013-8-20,98.4,84.9,73.2,67.2,63.4,57.5,70,51,27,29.85,29.74,2,0,2,0.00
2013-8-21,98.2,84.9,75.0,70.4,66.8,61.9,74,56,36,29.90,29.78,4,0,4,0.00
2013-8-22,101.3,86.7,73.0,72.6,69.1,65.9,84,58,35,29.89,29.72,3,0,3,0.00
2013-8-23,102.7,89.5,78.4,74.1,69.7,65.4,78,54,33,29.84,29.70,8,0,8,0.00
2013-8-24,104.5,89.3,78.8,72.8,69.6,64.3,73,54,32,29.86,29.77,10,0,10,0.00
2013-9-6,102.7,87.6,73.6,73.2,67.3,62.7,78,53,32,29.89,29.74,6,0,6,0.00
2013-9-7,102.2,88.0,77.5,73.7,68.1,63.4,76,54,32,29.85,29.70,5,0,5,0.00
2013-9-8,99.9,85.5,70.5,72.9,67.3,63.2,91,58,32,29.79,29.67,6,0,6,0.00
2013-9-9,97.3,84.9,71.8,72.6,67.9,64.0,89,59,38,29.81,29.70,16,1,16,0.00
2013-9-10,96.4,84.2,75.4,73.5,67.7,57.5,87,60,33,29.91,29.78,12,1,12,0.00
2013-9-11,99.9,82.8,71.2,81.3,69.5,64.3,89,66,37,29.93,29.80,5,0,5,0.08
2013-9-12,101.7,85.8,75.0,71.8,69.3,65.4,89,61,35,29.87,29.72,4,0,4,0.00
2013-9-13,101.1,84.9,72.5,75.3,70.4,64.9,96,64,38,29.78,29.63,13,1,13,0.11
2013-9-14,90.3,79.8,75.0,69.6,63.9,58.5,68,59,42,29.79,29.70,11,1,11,0.00
2013-9-15,98.1,84.5,74.5,73.1,65.6,60.1,68,54,39,29.84,29.75,5,0,5,0.00
2013-9-16,99.0,86.0,75.6,73.4,68.1,64.1,78,57,35,29.90,29.76,3,0,3,0.00
2013-9-17,94.6,85.7,75.9,71.1,68.4,65.1,77,57,42,29.88,29.74,6,0,6,0.00
2013-9-18,98.8,86.0,76.5,72.0,68.3,64.5,78,57,36,29.82,29.67,8,0,8,0.00
2013-9-19,92.7,82.5,73.2,75.5,71.4,66.1,99,71,51,29.80,29.67,4,0,4,0.17
2013-9-20,73.6,72.4,71.1,73.3,71.6,70.5,99,97,97,29.76,29.65,1,0,1,0.70
2013-9-27,87.8,79.1,67.3,73.5,68.1,61.2,90,70,57,29.75,29.65,8,1,8,0.00
2013-9-28,89.2,76.3,65.8,75.6,71.4,65.2,99,86,62,29.84,29.68,10,1,10,0.76
2013-9-29,85.3,71.4,63.7,65.2,58.7,48.8,96,68,33,29.85,29.71,2,0,2,0.00
2013-9-30,90.1,73.2,57.0,70.4,60.0,52.2,99,69,33,29.73,29.61,3,0,3,0.00
2013-10-1,92.5,79.1,70.2,72.9,69.7,63.8,98,76,42,29.76,29.64,4,0,4,0.00
2013-10-2,88.5,79.4,74.1,73.9,71.4,68.3,95,78,55,29.79,29.67,11,1,11,0.00
2013-10-3,92.5,80.5,73.2,73.9,71.6,67.5,95,76,50,29.74,29.62,12,1,12,0.00
2013-10-4,92.5,80.9,74.1,73.3,70.9,66.3,95,73,46,29.73,29.63,11,1,11,0.00
2013-10-5,78.6,66.8,51.3,72.3,60.7,45.2,99,81,62,29.90,29.67,6,0,6,0.05
2013-10-9,85.1,70.2,58.6,59.7,56.2,53.3,89,64,38,29.89,29.78,5,0,5,0.00
2013-10-10,84.7,72.4,62.4,64.2,60.4,57.3,90,68,44,29.87,29.69,6,0,6,0.00
2013-10-11,88.3,75.9,67.1,71.6,68.0,62.3,96,78,56,29.75,29.62,14,1,14,0.00
2013-10-12,97.5,78.8,70.9,77.1,71.7,66.8,96,80,50,29.88,29.68,9,0,9,0.00
2013-10-13,76.8,71.9,68.5,70.2,68.4,67.0,99,89,77,30.00,29.85,11,0,11,0.00
2013-10-14,73.0,70.8,68.4,72.1,70.0,67.7,99,97,93,29.94,29.73,3,0,3,0.72
2013-10-15,81.7,69.6,59.0,73.9,67.4,57.9,97,93,75,29.78,29.71,6,0,8,0.06
2013-10-16,67.5,57.0,52.0,55.8,52.5,48.5,98,86,58,29.90,29.81,9,0,9,0.06
2013-10-17,76.5,57.6,44.2,53.2,48.4,43.7,99,75,38,29.93,29.78,5,0,5,0.01
2013-10-18,73.0,60.1,48.4,58.7,53.0,48.1,99,79,52,29.89,29.70,13,0,13,0.01
2013-10-19,69.3,52.4,41.9,49.0,41.7,34.5,98,71,34,30.01,29.88,11,0,13,0.00
2013-10-20,74.8,56.0,38.3,49.9,44.3,38.0,99,70,33,29.88,29.68,14,1,14,0.00
2013-10-21,79.7,61.1,52.5,64.2,54.4,48.1,95,79,58,29.91,29.71,11,0,11,0.00
2013-10-22,79.5,57.8,38.5,51.6,44.5,32.8,99,69,24,29.96,29.82,9,0,9,0.00
2013-10-23,86.4,61.7,45.3,56.5,50.6,42.3,99,73,27,29.93,29.83,3,0,3,0.00
2013-10-24,83.7,63.4,47.5,57.5,51.2,45.1,99,69,39,30.08,29.86,9,0,9,0.00
2013-10-25,71.6,58.9,51.3,49.5,46.1,40.6,85,64,44,30.21,30.05,11,0,11,0.00
2013-10-26,78.4,63.0,54.1,64.8,55.7,48.0,99,78,62,30.05,29.82,15,1,15,0.01
2013-10-27,72.0,63.0,57.7,61.6,59.2,56.5,99,88,68,29.93,29.81,2,0,2,0.00
2013-10-28,78.8,65.6,52.2,69.5,62.1,51.6,99,89,73,29.91,29.81,7,0,7,0.00
2013-10-29,75.6,71.7,68.2,70.7,68.4,66.0,98,89,84,29.89,29.80,11,1,11,0.00
2013-10-30,72.1,68.5,65.1,69.6,66.8,64.1,99,94,86,29.83,29.59,16,2,19,0.00
2013-10-31,79.3,67.4,48.9,69.8,56.0,38.0,99,73,27,29.69,29.47,22,2,22,0.00
2013-11-1,82.8,60.5,44.8,56.4,48.8,43.1,99,70,35,29.88,29.62,10,0,10,0.00
2013-11-2,72.0,57.1,42.3,44.4,39.8,30.0,99,58,23,30.09,29.88,14,0,14,0.00
2013-11-3,69.8,54.7,39.6,49.1,43.5,38.9,99,69,37,30.02,29.80,14,1,14,0.00
2013-11-4,60.1,57.8,52.7,59.8,54.5,47.1,99,89,66,29.91,29.81,13,0,14,0.00
2013-11-5,69.1,64.4,60.1,68.2,64.0,59.8,99,98,96,29.86,29.73,7,0,7,0.00
2013-11-6,69.8,55.5,41.9,68.8,50.7,38.6,99,84,59,30.16,29.76,18,1,18,0.00
2013-11-7,69.4,48.8,34.3,46.7,40.2,32.3,99,78,33,30.30,30.16,4,0,4,0.00
2013-11-8,70.0,54.1,37.4,51.4,42.9,36.7,99,70,35,30.18,29.93,11,0,11,0.00
2013-11-9,70.2,59.4,54.7,54.2,49.3,46.3,77,69,55,30.03,29.92,9,0,9,0.00
2013-11-10,72.5,56.3,46.2,50.6,47.9,42.8,99,75,41,30.14,30.02,1,0,1,0.00
2013-11-11,77.2,56.6,42.1,56.4,48.1,41.8,99,78,44,30.08,29.96,1,0,1,0.00
2013-11-12,60.8,47.4,33.8,56.6,30.0,16.0,99,54,25,30.48,30.07,19,2,19,0.00
2013-11-13,57.7,38.9,26.8,34.6,25.5,19.0,86,61,27,30.48,30.16,4,0,4,0.00
2013-11-14,62.1,47.8,31.6,46.4,34.0,24.6,86,61,26,30.17,29.82,11,0,11,0.00
2013-11-15,73.2,59.3,52.9,59.2,53.2,46.4,99,81,58,29.82,29.65,8,0,8,0.00
2013-11-16,76.5,68.7,60.6,70.4,64.7,58.8,99,87,72,29.67,29.49,18,3,18,0.00
2013-11-17,92.1,75.6,63.0,71.0,59.0,37.6,91,61,28,29.81,29.50,15,2,17,0.00
2013-11-18,72.3,62.5,53.4,42.4,33.0,-43.4,54,34,18,29.98,29.81,12,0,12,0.00
2013-11-19,72.1,60.2,54.5,42.7,36.7,28.5,55,43,21,29.99,29.83,10,0,10,0.00
2013-11-20,64.9,57.1,47.7,53.7,43.2,35.1,80,60,48,29.84,29.70,8,0,8,0.00
2013-11-21,72.0,63.1,43.7,69.1,61.6,42.6,99,95,80,30.00,29.75,13,0,13,0.00
2013-11-22,43.7,36.6,34.2,42.6,35.4,32.3,98,95,87,30.23,29.99,21,1,21,0.00
2013-11-23,42.8,37.9,34.5,39.9,34.2,23.8,99,87,59,30.33,30.21,12,1,12,0.00
2013-11-24,37.0,33.7,31.5,26.6,23.7,19.9,75,66,54,30.38,30.14,12,1,12,0.00
2013-11-25,36.9,34.6,31.6,35.8,33.0,25.1,99,94,68,30.15,29.93,4,0,7,0.00
2013-11-26,54.7,41.7,34.7,37.7,32.1,20.9,98,71,44,30.17,29.91,22,1,22,0.00
2013-11-27,52.7,34.5,26.1,24.2,18.8,9.2,83,56,24,30.26,30.13,8,0,8,0.00
2013-11-28,52.9,32.0,26.6,30.9,25.4,22.2,99,78,33,30.28,30.17,3,0,3,0.00
2013-11-29,61.5,40.5,23.7,42.1,33.5,23.3,99,79,43,30.34,30.17,5,0,5,0.00
2013-11-30,68.7,50.8,35.2,53.3,43.7,32.2,99,78,48,30.18,29.98,15,1,15,0.00
2013-12-1,72.9,56.9,45.5,59.0,52.9,44.7,99,88,60,30.00,29.72,13,1,13,0.00
2013-12-2,72.9,52.5,37.6,56.2,46.9,37.3,99,84,46,29.72,29.50,4,0,4,0.00
2013-12-3,78.1,52.7,36.3,53.9,42.5,34.1,99,76,24,29.51,29.35,7,0,7,0.00
2013-12-4,83.1,61.8,47.8,61.4,51.6,37.0,97,72,42,29.71,29.42,11,0,11,0.00
2013-12-5,47.8,34.5,28.6,37.3,26.5,20.1,99,74,53,30.00,29.71,17,1,17,0.00
2013-12-6,31.5,31.1,30.9,31.2,30.9,30.5,99,99,99,29.95,29.93,8,0,8,0.00
2013-12-7,25.2,24.0,19.6,23.7,21.3,15.3,96,89,81,30.36,30.10,0,0,0,0.00
2013-12-8,33.6,29.7,24.8,32.3,28.9,23.1,99,97,92,30.09,29.87,1,0,1,0.00
2013-12-9,32.0,31.0,27.0,31.4,28.3,19.5,99,90,73,30.23,29.98,15,1,15,0.00
2013-12-10,44.4,27.6,18.0,28.4,20.6,12.8,99,76,49,30.33,30.17,5,0,5,0.00
2013-12-11,44.8,28.4,20.5,33.7,25.0,20.2,99,88,58,30.40,30.13,2,0,2,0.00
2013-12-12,53.1,36.7,22.1,37.9,29.2,20.2,97,76,47,30.42,30.11,4,0,4,0.00
2013-12-13,44.8,41.7,38.1,44.0,38.7,32.5,99,89,71,30.12,29.62,12,0,12,0.00
2013-12-14,45.7,40.8,29.7,44.9,35.8,24.1,99,83,63,30.14,29.60,20,1,20,0.00
2013-12-15,66.0,40.7,23.2,39.1,29.3,21.5,98,70,25,30.17,30.04,7,0,7,0.00
2013-12-16,70.0,48.6,32.9,40.7,35.6,30.8,94,65,26,30.06,29.96,8,0,8,0.00
2013-12-17,74.1,48.1,30.7,44.2,37.4,30.1,99,72,25,30.11,30.02,3,0,3,0.00
2013-12-18,38.3,30.6,29.7,37.5,30.3,29.4,99,99,94,30.08,30.05,0,0,0,0.00
2013-12-19,29.7,29.7,29.7,29.4,29.4,29.4,99,99,99,30.05,30.05,0,0,0,0.00
2013-12-20,29.7,29.7,29.7,29.4,29.4,29.4,99,99,99,30.05,30.05,0,0,0,0.00
2013-12-21,29.7,29.7,29.7,29.4,29.4,29.4,99,99,99,30.05,30.05,0,0,0,0.00